Year,Month,Day,Hour,Minute,Value (Times are PST for temperature in C)
2002,04,24,00,00,6.10
2002,04,24,00,01,6.20
2002,04,24,00,02,6.20
2002,04,24,00,03,6.10
2002,04,24,00,04,6.10
2002,04,24,00,05,6.10
2002,04,24,00,06,6.10
2002,04,24,00,07,6.10
2002,04,24,00,08,6.10
2002,04,24,00,09,6.10
2002,04,24,00,10,6.10
2002,04,24,00,11,6.10
2002,04,24,00,12,6.10
2002,04,24,00,13,6.10
2002,04,24,00,14,6.10
2002,04,24,00,15,6.10
2002,04,24,00,16,6.00
2002,04,24,00,17,6.00
2002,04,24,00,18,6.00
2002,04,24,00,19,6.00
2002,04,24,00,20,6.00
2002,04,24,00,21,6.00
2002,04,24,00,22,5.90
2002,04,24,00,23,5.90
2002,04,24,00,24,5.90
2002,04,24,00,25,5.90
2002,04,24,00,26,5.90
2002,04,24,00,27,5.90
2002,04,24,00,28,6.00
2002,04,24,00,29,6.00
2002,04,24,00,30,6.00
2002,04,24,00,31,6.00
2002,04,24,00,32,6.00
2002,04,24,00,33,5.90
2002,04,24,00,34,5.90
2002,04,24,00,35,5.90
2002,04,24,00,36,5.90
2002,04,24,00,37,5.80
2002,04,24,00,38,5.80
2002,04,24,00,39,5.80
2002,04,24,00,40,5.70
2002,04,24,00,41,5.70
2002,04,24,00,42,5.70
2002,04,24,00,43,5.70
2002,04,24,00,44,5.70
2002,04,24,00,45,5.70
2002,04,24,00,46,5.80
2002,04,24,00,47,5.80
2002,04,24,00,48,5.90
2002,04,24,00,49,5.90
2002,04,24,00,50,6.00
2002,04,24,00,51,6.00
2002,04,24,00,52,6.10
2002,04,24,00,53,6.10
2002,04,24,00,54,6.10
2002,04,24,00,55,6.10
2002,04,24,00,56,6.00
2002,04,24,00,57,5.90
2002,04,24,00,58,5.90
2002,04,24,00,59,5.80
2002,04,24,01,00,5.70
2002,04,24,01,01,5.70
2002,04,24,01,02,5.70
2002,04,24,01,03,5.70
2002,04,24,01,04,5.70
2002,04,24,01,05,5.70
2002,04,24,01,06,5.70
2002,04,24,01,07,5.70
2002,04,24,01,08,5.70
2002,04,24,01,09,5.70
2002,04,24,01,10,5.70
2002,04,24,01,11,5.70
2002,04,24,01,12,5.70
2002,04,24,01,13,5.70
2002,04,24,01,14,5.70
2002,04,24,01,15,5.70
2002,04,24,01,16,5.60
2002,04,24,01,17,5.60
2002,04,24,01,18,5.50
2002,04,24,01,19,5.50
2002,04,24,01,20,5.50
2002,04,24,01,21,5.40
2002,04,24,01,22,5.40
2002,04,24,01,23,5.30
2002,04,24,01,24,5.30
2002,04,24,01,25,5.30
2002,04,24,01,26,5.30
2002,04,24,01,27,5.30
2002,04,24,01,28,5.30
2002,04,24,01,29,5.30
2002,04,24,01,30,5.30
2002,04,24,01,31,5.30
2002,04,24,01,32,5.30
2002,04,24,01,33,5.30
2002,04,24,01,34,5.30
2002,04,24,01,35,5.30
2002,04,24,01,36,5.20
2002,04,24,01,37,5.10
2002,04,24,01,38,5.10
2002,04,24,01,39,5.10
2002,04,24,01,40,5.10
2002,04,24,01,41,5.10
2002,04,24,01,42,5.10
2002,04,24,01,43,5.00
2002,04,24,01,44,4.90
2002,04,24,01,45,4.90
2002,04,24,01,46,4.90
2002,04,24,01,47,4.90
2002,04,24,01,48,4.90
2002,04,24,01,49,4.80
2002,04,24,01,50,4.80
2002,04,24,01,51,4.80
2002,04,24,01,52,4.70
2002,04,24,01,53,4.60
2002,04,24,01,54,4.60
2002,04,24,01,55,4.60
2002,04,24,01,56,4.60
2002,04,24,01,57,4.60
2002,04,24,01,58,4.60
2002,04,24,01,59,4.60
2002,04,24,02,00,4.60
2002,04,24,02,01,4.60
2002,04,24,02,02,4.60
2002,04,24,02,03,4.60
2002,04,24,02,04,4.60
2002,04,24,02,05,4.60
2002,04,24,02,06,4.60
2002,04,24,02,07,4.60
2002,04,24,02,08,4.60
2002,04,24,02,09,4.50
2002,04,24,02,10,4.50
2002,04,24,02,11,4.50
2002,04,24,02,12,4.50
2002,04,24,02,13,4.50
2002,04,24,02,14,4.40
2002,04,24,02,15,4.40
2002,04,24,02,16,4.40
2002,04,24,02,17,4.40
2002,04,24,02,18,4.30
2002,04,24,02,19,4.30
2002,04,24,02,20,4.30
2002,04,24,02,21,4.20
2002,04,24,02,22,4.20
2002,04,24,02,23,4.20
2002,04,24,02,24,4.20
2002,04,24,02,25,4.10
2002,04,24,02,26,4.10
2002,04,24,02,27,4.10
2002,04,24,02,28,4.00
2002,04,24,02,29,4.00
2002,04,24,02,30,3.90
2002,04,24,02,31,3.90
2002,04,24,02,32,3.80
2002,04,24,02,33,3.80
2002,04,24,02,34,3.80
2002,04,24,02,35,3.80
2002,04,24,02,36,3.70
2002,04,24,02,37,3.70
2002,04,24,02,38,3.60
2002,04,24,02,39,3.60
2002,04,24,02,40,3.50
2002,04,24,02,41,3.40
2002,04,24,02,42,3.40
2002,04,24,02,43,3.30
2002,04,24,02,44,3.40
2002,04,24,02,45,3.40
2002,04,24,02,46,3.40
2002,04,24,02,47,3.40
2002,04,24,02,48,3.40
2002,04,24,02,49,3.40
2002,04,24,02,50,3.50
2002,04,24,02,51,3.50
2002,04,24,02,52,3.50
2002,04,24,02,53,3.50
2002,04,24,02,54,3.50
2002,04,24,02,55,3.60
2002,04,24,02,56,3.60
2002,04,24,02,57,3.60
2002,04,24,02,58,3.60
2002,04,24,02,59,3.70
2002,04,24,03,00,3.80
2002,04,24,03,01,3.80
2002,04,24,03,02,3.80
2002,04,24,03,03,3.80
2002,04,24,03,04,3.80
2002,04,24,03,05,3.80
2002,04,24,03,06,3.80
2002,04,24,03,07,3.80
2002,04,24,03,08,3.80
2002,04,24,03,09,3.80
2002,04,24,03,10,3.80
2002,04,24,03,11,3.70
2002,04,24,03,12,3.70
2002,04,24,03,13,3.70
2002,04,24,03,14,3.70
2002,04,24,03,15,3.60
2002,04,24,03,16,3.60
2002,04,24,03,17,3.60
2002,04,24,03,18,3.50
2002,04,24,03,19,3.50
2002,04,24,03,20,3.40
2002,04,24,03,21,3.40
2002,04,24,03,22,3.30
2002,04,24,03,23,3.30
2002,04,24,03,24,3.30
2002,04,24,03,25,3.30
2002,04,24,03,26,3.30
2002,04,24,03,27,3.20
2002,04,24,03,28,3.10
2002,04,24,03,29,3.10
2002,04,24,03,30,3.10
2002,04,24,03,31,3.10
2002,04,24,03,32,3.10
2002,04,24,03,33,3.10
2002,04,24,03,34,3.10
2002,04,24,03,35,3.10
2002,04,24,03,36,3.00
2002,04,24,03,37,2.90
2002,04,24,03,38,2.90
2002,04,24,03,39,2.90
2002,04,24,03,40,2.80
2002,04,24,03,41,2.80
2002,04,24,03,42,2.70
2002,04,24,03,43,2.70
2002,04,24,03,44,2.70
2002,04,24,03,45,2.70
2002,04,24,03,46,2.70
2002,04,24,03,47,2.70
2002,04,24,03,48,2.70
2002,04,24,03,49,2.70
2002,04,24,03,50,2.60
2002,04,24,03,51,2.60
2002,04,24,03,52,2.60
2002,04,24,03,53,2.60
2002,04,24,03,54,2.60
2002,04,24,03,55,2.60
2002,04,24,03,56,2.60
2002,04,24,03,57,2.60
2002,04,24,03,58,2.60
2002,04,24,03,59,2.60
2002,04,24,04,00,2.50
2002,04,24,04,01,2.50
2002,04,24,04,02,2.50
2002,04,24,04,03,2.50
2002,04,24,04,04,2.40
2002,04,24,04,05,2.40
2002,04,24,04,06,2.40
2002,04,24,04,07,2.30
2002,04,24,04,08,2.30
2002,04,24,04,09,2.30
2002,04,24,04,10,2.20
2002,04,24,04,11,2.20
2002,04,24,04,12,2.20
2002,04,24,04,13,2.20
2002,04,24,04,14,2.20
2002,04,24,04,15,2.20
2002,04,24,04,16,2.20
2002,04,24,04,17,2.10
2002,04,24,04,18,2.10
2002,04,24,04,19,2.10
2002,04,24,04,20,2.00
2002,04,24,04,21,2.00
2002,04,24,04,22,2.00
2002,04,24,04,23,1.90
2002,04,24,04,24,1.90
2002,04,24,04,25,1.90
2002,04,24,04,26,1.90
2002,04,24,04,27,1.80
2002,04,24,04,28,1.80
2002,04,24,04,29,1.80
2002,04,24,04,30,1.80
2002,04,24,04,31,1.80
2002,04,24,04,32,1.80
2002,04,24,04,33,1.80
2002,04,24,04,34,1.80
2002,04,24,04,35,1.70
2002,04,24,04,36,1.70
2002,04,24,04,37,1.70
2002,04,24,04,38,1.70
2002,04,24,04,39,1.70
2002,04,24,04,40,1.70
2002,04,24,04,41,1.70
2002,04,24,04,42,1.70
2002,04,24,04,43,1.70
2002,04,24,04,44,1.70
2002,04,24,04,45,1.70
2002,04,24,04,46,1.70
2002,04,24,04,47,1.70
2002,04,24,04,48,1.70
2002,04,24,04,49,1.60
2002,04,24,04,50,1.60
2002,04,24,04,51,1.60
2002,04,24,04,52,1.60
2002,04,24,04,53,1.60
2002,04,24,04,54,1.60
2002,04,24,04,55,1.60
2002,04,24,04,56,1.60
2002,04,24,04,57,1.60
2002,04,24,04,58,1.60
2002,04,24,04,59,1.60
2002,04,24,05,00,1.60
2002,04,24,05,01,1.60
2002,04,24,05,02,1.60
2002,04,24,05,03,1.60
2002,04,24,05,04,1.60
2002,04,24,05,05,1.60
2002,04,24,05,06,1.60
2002,04,24,05,07,1.60
2002,04,24,05,08,1.60
2002,04,24,05,09,1.60
2002,04,24,05,10,1.60
2002,04,24,05,11,1.60
2002,04,24,05,12,1.60
2002,04,24,05,13,1.60
2002,04,24,05,14,1.60
2002,04,24,05,15,1.60
2002,04,24,05,16,1.50
2002,04,24,05,17,1.50
2002,04,24,05,18,1.50
2002,04,24,05,19,1.50
2002,04,24,05,20,1.50
2002,04,24,05,21,1.50
2002,04,24,05,22,1.60
2002,04,24,05,23,1.60
2002,04,24,05,24,1.70
2002,04,24,05,25,1.70
2002,04,24,05,26,1.70
2002,04,24,05,27,1.70
2002,04,24,05,28,1.70
2002,04,24,05,29,1.70
2002,04,24,05,30,1.70
2002,04,24,05,31,1.70
2002,04,24,05,32,1.70
2002,04,24,05,33,1.70
2002,04,24,05,34,1.80
2002,04,24,05,35,1.80
2002,04,24,05,36,1.80
2002,04,24,05,37,1.80
2002,04,24,05,38,1.80
2002,04,24,05,39,1.80
2002,04,24,05,40,1.90
2002,04,24,05,41,1.90
2002,04,24,05,42,1.90
2002,04,24,05,43,2.00
2002,04,24,05,44,2.10
2002,04,24,05,45,2.10
2002,04,24,05,46,2.20
2002,04,24,05,47,2.20
2002,04,24,05,48,2.20
2002,04,24,05,49,2.20
2002,04,24,05,50,2.10
2002,04,24,05,51,2.00
2002,04,24,05,52,2.00
2002,04,24,05,53,2.00
2002,04,24,05,54,2.00
2002,04,24,05,55,2.00
2002,04,24,05,56,2.00
2002,04,24,05,57,2.00
2002,04,24,05,58,2.00
2002,04,24,05,59,2.00
2002,04,24,06,00,2.00
2002,04,24,06,01,2.00
2002,04,24,06,02,2.00
2002,04,24,06,03,2.00
2002,04,24,06,04,2.00
2002,04,24,06,05,2.00
2002,04,24,06,06,2.00
2002,04,24,06,07,2.00
2002,04,24,06,08,2.00
2002,04,24,06,09,2.00
2002,04,24,06,10,2.00
2002,04,24,06,11,1.90
2002,04,24,06,12,1.90
2002,04,24,06,13,1.90
2002,04,24,06,14,1.90
2002,04,24,06,15,1.90
2002,04,24,06,16,1.90
2002,04,24,06,17,1.90
2002,04,24,06,18,1.90
2002,04,24,06,19,1.90
2002,04,24,06,20,1.90
2002,04,24,06,21,1.90
2002,04,24,06,22,1.80
2002,04,24,06,23,1.80
2002,04,24,06,24,1.80
2002,04,24,06,25,1.90
2002,04,24,06,26,1.90
2002,04,24,06,27,1.90
2002,04,24,06,28,1.80
2002,04,24,06,29,1.80
2002,04,24,06,30,1.80
2002,04,24,06,31,1.80
2002,04,24,06,32,1.90
2002,04,24,06,33,1.90
2002,04,24,06,34,2.00
2002,04,24,06,35,2.00
2002,04,24,06,36,2.10
2002,04,24,06,37,2.10
2002,04,24,06,38,2.10
2002,04,24,06,39,2.10
2002,04,24,06,40,2.20
2002,04,24,06,41,2.20
2002,04,24,06,42,2.20
2002,04,24,06,43,2.20
2002,04,24,06,44,2.30
2002,04,24,06,45,2.30
2002,04,24,06,46,2.40
2002,04,24,06,47,2.40
2002,04,24,06,48,2.40
2002,04,24,06,49,2.40
2002,04,24,06,50,2.50
2002,04,24,06,51,2.50
2002,04,24,06,52,2.50
2002,04,24,06,53,2.50
2002,04,24,06,54,2.60
2002,04,24,06,55,2.60
2002,04,24,06,56,2.60
2002,04,24,06,57,2.70
2002,04,24,06,58,2.80
2002,04,24,06,59,2.90
2002,04,24,07,00,2.90
2002,04,24,07,01,3.00
2002,04,24,07,02,3.10
2002,04,24,07,03,3.10
2002,04,24,07,04,3.20
2002,04,24,07,05,3.30
2002,04,24,07,06,3.50
2002,04,24,07,07,3.60
2002,04,24,07,08,3.60
2002,04,24,07,09,3.70
2002,04,24,07,10,3.90
2002,04,24,07,11,4.00
2002,04,24,07,12,4.10
2002,04,24,07,13,4.20
2002,04,24,07,14,4.30
2002,04,24,07,15,4.40
2002,04,24,07,16,4.50
2002,04,24,07,17,4.60
2002,04,24,07,18,4.70
2002,04,24,07,19,4.80
2002,04,24,07,20,4.90
2002,04,24,07,21,5.10
2002,04,24,07,22,5.10
2002,04,24,07,23,5.00
2002,04,24,07,24,4.90
2002,04,24,07,25,4.90
2002,04,24,07,26,4.90
2002,04,24,07,27,4.90
2002,04,24,07,28,5.00
2002,04,24,07,29,5.10
2002,04,24,07,30,5.20
2002,04,24,07,31,5.30
2002,04,24,07,32,5.40
2002,04,24,07,33,5.50
2002,04,24,07,34,5.60
2002,04,24,07,35,5.70
2002,04,24,07,36,5.90
2002,04,24,07,37,6.00
2002,04,24,07,38,6.00
2002,04,24,07,39,6.00
2002,04,24,07,40,5.90
2002,04,24,07,41,5.80
2002,04,24,07,42,5.70
2002,04,24,07,43,5.70
2002,04,24,07,44,5.70
2002,04,24,07,45,5.60
2002,04,24,07,46,5.60
2002,04,24,07,47,5.60
2002,04,24,07,48,5.60
2002,04,24,07,49,5.70
2002,04,24,07,50,5.70
2002,04,24,07,51,5.70
2002,04,24,07,52,5.70
2002,04,24,07,53,5.80
2002,04,24,07,54,5.90
2002,04,24,07,55,6.00
2002,04,24,07,56,6.00
2002,04,24,07,57,6.10
2002,04,24,07,58,6.20
2002,04,24,07,59,6.20
2002,04,24,08,00,6.20
2002,04,24,08,01,6.30
2002,04,24,08,02,6.30
2002,04,24,08,03,6.30
2002,04,24,08,04,6.40
2002,04,24,08,05,6.30
2002,04,24,08,06,6.30
2002,04,24,08,07,6.30
2002,04,24,08,08,6.30
2002,04,24,08,09,6.20
2002,04,24,08,10,6.20
2002,04,24,08,11,6.20
2002,04,24,08,12,6.20
2002,04,24,08,13,6.20
2002,04,24,08,14,6.20
2002,04,24,08,15,6.20
2002,04,24,08,16,6.20
2002,04,24,08,17,6.20
2002,04,24,08,18,6.20
2002,04,24,08,19,6.20
2002,04,24,08,20,6.20
2002,04,24,08,21,6.20
2002,04,24,08,22,6.20
2002,04,24,08,23,6.20
2002,04,24,08,24,6.20
2002,04,24,08,25,6.30
2002,04,24,08,26,6.30
2002,04,24,08,27,6.40
2002,04,24,08,28,6.40
2002,04,24,08,29,6.40
2002,04,24,08,30,6.60
2002,04,24,08,31,6.60
2002,04,24,08,32,6.70
2002,04,24,08,33,6.70
2002,04,24,08,34,6.70
2002,04,24,08,35,6.80
2002,04,24,08,36,6.80
2002,04,24,08,37,6.80
2002,04,24,08,38,6.90
2002,04,24,08,39,7.00
2002,04,24,08,40,7.00
2002,04,24,08,41,7.10
2002,04,24,08,42,7.20
2002,04,24,08,43,7.20
2002,04,24,08,44,7.20
2002,04,24,08,45,7.30
2002,04,24,08,46,7.30
2002,04,24,08,47,7.30
2002,04,24,08,48,7.30
2002,04,24,08,49,7.30
2002,04,24,08,50,7.40
2002,04,24,08,51,7.50
2002,04,24,08,52,7.60
2002,04,24,08,53,7.60
2002,04,24,08,54,7.70
2002,04,24,08,55,7.80
2002,04,24,08,56,7.70
2002,04,24,08,57,7.70
2002,04,24,08,58,7.80
2002,04,24,08,59,7.90
2002,04,24,09,00,8.00
2002,04,24,09,01,8.10
2002,04,24,09,02,8.10
2002,04,24,09,03,8.20
2002,04,24,09,04,8.30
2002,04,24,09,05,8.30
2002,04,24,09,06,8.30
2002,04,24,09,07,8.30
2002,04,24,09,08,8.20
2002,04,24,09,09,8.10
2002,04,24,09,10,7.90
2002,04,24,09,11,8.00
2002,04,24,09,12,8.00
2002,04,24,09,13,7.90
2002,04,24,09,14,7.90
2002,04,24,09,15,7.80
2002,04,24,09,16,7.80
2002,04,24,09,17,7.80
2002,04,24,09,18,7.90
2002,04,24,09,19,7.90
2002,04,24,09,20,8.00
2002,04,24,09,21,8.20
2002,04,24,09,22,8.20
2002,04,24,09,23,8.20
2002,04,24,09,24,8.10
2002,04,24,09,25,8.10
2002,04,24,09,26,8.30
2002,04,24,09,27,8.40
2002,04,24,09,28,8.40
2002,04,24,09,29,8.50
2002,04,24,09,30,8.50
2002,04,24,09,31,8.50
2002,04,24,09,32,8.50
2002,04,24,09,33,8.40
2002,04,24,09,34,8.30
2002,04,24,09,35,8.10
2002,04,24,09,36,8.00
2002,04,24,09,37,7.90
2002,04,24,09,38,7.90
2002,04,24,09,39,7.90
2002,04,24,09,40,7.90
2002,04,24,09,41,7.90
2002,04,24,09,42,8.10
2002,04,24,09,43,8.10
2002,04,24,09,44,8.10
2002,04,24,09,45,8.00
2002,04,24,09,46,8.10
2002,04,24,09,47,8.30
2002,04,24,09,48,8.30
2002,04,24,09,49,8.40
2002,04,24,09,50,8.50
2002,04,24,09,51,8.50
2002,04,24,09,52,8.60
2002,04,24,09,53,8.50
2002,04,24,09,54,8.40
2002,04,24,09,55,8.40
2002,04,24,09,56,8.30
2002,04,24,09,57,8.20
2002,04,24,09,58,8.20
2002,04,24,09,59,8.30
2002,04,24,10,00,8.40
2002,04,24,10,01,8.40
2002,04,24,10,02,8.50
2002,04,24,10,03,8.50
2002,04,24,10,04,8.50
2002,04,24,10,05,8.50
2002,04,24,10,06,8.60
2002,04,24,10,07,8.50
2002,04,24,10,08,8.40
2002,04,24,10,09,8.40
2002,04,24,10,10,8.60
2002,04,24,10,11,8.50
2002,04,24,10,12,8.50
2002,04,24,10,13,8.40
2002,04,24,10,14,8.20
2002,04,24,10,15,8.10
2002,04,24,10,16,8.00
2002,04,24,10,17,7.90
2002,04,24,10,18,7.80
2002,04,24,10,19,7.80
2002,04,24,10,20,7.80
2002,04,24,10,21,7.80
2002,04,24,10,22,7.80
2002,04,24,10,23,7.70
2002,04,24,10,24,7.80
2002,04,24,10,25,7.70
2002,04,24,10,26,7.60
2002,04,24,10,27,7.60
2002,04,24,10,28,7.70
2002,04,24,10,29,7.80
2002,04,24,10,30,7.90
2002,04,24,10,31,7.90
2002,04,24,10,32,7.90
2002,04,24,10,33,7.90
2002,04,24,10,34,8.00
2002,04,24,10,35,7.90
2002,04,24,10,36,7.90
2002,04,24,10,37,7.90
2002,04,24,10,38,7.90
2002,04,24,10,39,8.00
2002,04,24,10,40,7.90
2002,04,24,10,41,7.90
2002,04,24,10,42,7.80
2002,04,24,10,43,7.80
2002,04,24,10,44,7.80
2002,04,24,10,45,7.80
2002,04,24,10,46,7.80
2002,04,24,10,47,7.80
2002,04,24,10,48,7.90
2002,04,24,10,49,8.10
2002,04,24,10,50,8.20
2002,04,24,10,51,8.20
2002,04,24,10,52,8.20
2002,04,24,10,53,8.20
2002,04,24,10,54,8.30
2002,04,24,10,55,8.50
2002,04,24,10,56,8.50
2002,04,24,10,57,8.50
2002,04,24,10,58,8.50
2002,04,24,10,59,8.50
2002,04,24,11,00,8.60
2002,04,24,11,01,8.50
2002,04,24,11,02,8.50
2002,04,24,11,03,8.50
2002,04,24,11,04,8.40
2002,04,24,11,05,8.20
2002,04,24,11,06,8.30
2002,04,24,11,07,8.40
2002,04,24,11,08,8.50
2002,04,24,11,09,8.60
2002,04,24,11,10,8.60
2002,04,24,11,11,8.80
2002,04,24,11,12,8.90
2002,04,24,11,13,9.00
2002,04,24,11,14,8.90
2002,04,24,11,15,8.80
2002,04,24,11,16,8.80
2002,04,24,11,17,8.80
2002,04,24,11,18,8.70
2002,04,24,11,19,8.70
2002,04,24,11,20,8.90
2002,04,24,11,21,8.90
2002,04,24,11,22,8.90
2002,04,24,11,23,8.90
2002,04,24,11,24,9.00
2002,04,24,11,25,9.10
2002,04,24,11,26,9.00
2002,04,24,11,27,9.00
2002,04,24,11,28,9.10
2002,04,24,11,29,9.20
2002,04,24,11,30,9.40
2002,04,24,11,31,9.40
2002,04,24,11,32,9.30
2002,04,24,11,33,9.20
2002,04,24,11,34,9.20
2002,04,24,11,35,9.20
2002,04,24,11,36,9.10
2002,04,24,11,37,9.00
2002,04,24,11,38,9.10
2002,04,24,11,39,9.30
2002,04,24,11,40,9.40
2002,04,24,11,41,9.50
2002,04,24,11,42,9.50
2002,04,24,11,43,9.40
2002,04,24,11,44,9.40
2002,04,24,11,45,9.50
2002,04,24,11,46,9.60
2002,04,24,11,47,9.60
2002,04,24,11,48,9.50
2002,04,24,11,49,9.40
2002,04,24,11,50,9.30
2002,04,24,11,51,9.40
2002,04,24,11,52,9.50
2002,04,24,11,53,9.70
2002,04,24,11,54,9.60
2002,04,24,11,55,9.70
2002,04,24,11,56,9.80
2002,04,24,11,57,9.80
2002,04,24,11,58,9.70
2002,04,24,11,59,9.70
2002,04,24,12,00,9.70
2002,04,24,12,01,9.60
2002,04,24,12,02,9.50
2002,04,24,12,03,9.40
2002,04,24,12,04,9.40
2002,04,24,12,05,9.40
2002,04,24,12,06,9.40
2002,04,24,12,07,9.40
2002,04,24,12,08,9.40
2002,04,24,12,09,9.40
2002,04,24,12,10,9.30
2002,04,24,12,11,9.20
2002,04,24,12,12,9.30
2002,04,24,12,13,9.40
2002,04,24,12,14,9.50
2002,04,24,12,15,9.60
2002,04,24,12,16,9.70
2002,04,24,12,17,9.70
2002,04,24,12,18,9.70
2002,04,24,12,19,9.70
2002,04,24,12,20,9.60
2002,04,24,12,21,9.50
2002,04,24,12,22,9.40
2002,04,24,12,23,9.40
2002,04,24,12,24,9.40
2002,04,24,12,25,9.40
2002,04,24,12,26,9.50
2002,04,24,12,27,9.50
2002,04,24,12,28,9.60
2002,04,24,12,29,9.60
2002,04,24,12,30,9.60
2002,04,24,12,31,9.80
2002,04,24,12,32,9.80
2002,04,24,12,33,9.80
2002,04,24,12,34,9.90
2002,04,24,12,35,9.90
2002,04,24,12,36,9.90
2002,04,24,12,37,9.90
2002,04,24,12,38,9.90
2002,04,24,12,39,10.10
2002,04,24,12,40,10.10
2002,04,24,12,41,9.90
2002,04,24,12,42,9.90
2002,04,24,12,43,10.30
2002,04,24,12,44,10.50
2002,04,24,12,45,10.70
2002,04,24,12,46,10.80
2002,04,24,12,47,10.90
2002,04,24,12,48,11.00
2002,04,24,12,49,11.10
2002,04,24,12,50,11.20
2002,04,24,12,51,11.10
2002,04,24,12,52,11.10
2002,04,24,12,53,11.20
2002,04,24,12,54,11.30
2002,04,24,12,55,11.40
2002,04,24,12,56,11.50
2002,04,24,12,57,11.50
2002,04,24,12,58,11.40
2002,04,24,12,59,11.40
2002,04,24,13,00,11.40
2002,04,24,13,01,11.40
2002,04,24,13,02,11.40
2002,04,24,13,03,11.40
2002,04,24,13,04,11.40
2002,04,24,13,05,11.40
2002,04,24,13,06,11.50
2002,04,24,13,07,11.50
2002,04,24,13,08,11.50
2002,04,24,13,09,11.50
2002,04,24,13,10,11.50
2002,04,24,13,11,11.30
2002,04,24,13,12,11.20
2002,04,24,13,13,11.10
2002,04,24,13,14,11.10
2002,04,24,13,15,11.20
2002,04,24,13,16,11.30
2002,04,24,13,17,11.40
2002,04,24,13,18,11.40
2002,04,24,13,19,11.40
2002,04,24,13,20,11.20
2002,04,24,13,21,11.00
2002,04,24,13,22,10.90
2002,04,24,13,23,10.80
2002,04,24,13,24,10.80
2002,04,24,13,25,10.80
2002,04,24,13,26,10.80
2002,04,24,13,27,10.90
2002,04,24,13,28,10.90
2002,04,24,13,29,11.00
2002,04,24,13,30,10.80
2002,04,24,13,31,10.80
2002,04,24,13,32,10.90
2002,04,24,13,33,10.90
2002,04,24,13,34,10.90
2002,04,24,13,35,11.00
2002,04,24,13,36,11.10
2002,04,24,13,37,11.10
2002,04,24,13,38,11.20
2002,04,24,13,39,11.20
2002,04,24,13,40,11.20
2002,04,24,13,41,11.20
2002,04,24,13,42,11.30
2002,04,24,13,43,11.40
2002,04,24,13,44,11.30
2002,04,24,13,45,11.40
2002,04,24,13,46,11.30
2002,04,24,13,47,11.40
2002,04,24,13,48,11.40
2002,04,24,13,49,11.40
2002,04,24,13,50,11.50
2002,04,24,13,51,11.50
2002,04,24,13,52,11.50
2002,04,24,13,53,11.40
2002,04,24,13,54,11.40
2002,04,24,13,55,11.50
2002,04,24,13,56,11.50
2002,04,24,13,57,11.50
2002,04,24,13,58,11.40
2002,04,24,13,59,11.40
2002,04,24,14,00,11.40
2002,04,24,14,01,11.50
2002,04,24,14,02,11.60
2002,04,24,14,03,11.70
2002,04,24,14,04,11.80
2002,04,24,14,05,11.80
2002,04,24,14,06,11.80
2002,04,24,14,07,11.70
2002,04,24,14,08,11.50
2002,04,24,14,09,11.40
2002,04,24,14,10,11.30
2002,04,24,14,11,11.30
2002,04,24,14,12,11.30
2002,04,24,14,13,11.30
2002,04,24,14,14,11.30
2002,04,24,14,15,11.30
2002,04,24,14,16,11.30
2002,04,24,14,17,11.30
2002,04,24,14,18,11.20
2002,04,24,14,19,11.20
2002,04,24,14,20,11.20
2002,04,24,14,21,11.20
2002,04,24,14,22,11.20
2002,04,24,14,23,11.20
2002,04,24,14,24,11.10
2002,04,24,14,25,10.90
2002,04,24,14,26,10.90
2002,04,24,14,27,10.80
2002,04,24,14,28,10.90
2002,04,24,14,29,10.90
2002,04,24,14,30,11.00
2002,04,24,14,31,11.00
2002,04,24,14,32,11.00
2002,04,24,14,33,11.00
2002,04,24,14,34,11.10
2002,04,24,14,35,11.10
2002,04,24,14,36,11.20
2002,04,24,14,37,11.30
2002,04,24,14,38,11.20
2002,04,24,14,39,11.20
2002,04,24,14,40,11.20
2002,04,24,14,41,11.10
2002,04,24,14,42,11.10
2002,04,24,14,43,11.20
2002,04,24,14,44,11.20
2002,04,24,14,45,11.20
2002,04,24,14,46,11.20
2002,04,24,14,47,11.30
2002,04,24,14,48,11.30
2002,04,24,14,49,11.40
2002,04,24,14,50,11.40
2002,04,24,14,51,11.30
2002,04,24,14,52,11.40
2002,04,24,14,53,11.40
2002,04,24,14,54,11.40
2002,04,24,14,55,11.50
2002,04,24,14,56,11.60
2002,04,24,14,57,11.60
2002,04,24,14,58,11.60
2002,04,24,14,59,11.60
2002,04,24,15,00,11.60
2002,04,24,15,01,11.60
2002,04,24,15,02,11.40
2002,04,24,15,03,11.40
2002,04,24,15,04,11.40
2002,04,24,15,05,11.40
2002,04,24,15,06,11.40
2002,04,24,15,07,11.40
2002,04,24,15,08,11.40
2002,04,24,15,09,11.30
2002,04,24,15,10,11.20
2002,04,24,15,11,11.20
2002,04,24,15,12,11.10
2002,04,24,15,13,11.10
2002,04,24,15,14,11.10
2002,04,24,15,15,11.10
2002,04,24,15,16,11.10
2002,04,24,15,17,11.10
2002,04,24,15,18,11.00
2002,04,24,15,19,11.00
2002,04,24,15,20,11.10
2002,04,24,15,21,11.20
2002,04,24,15,22,11.20
2002,04,24,15,23,11.20
2002,04,24,15,24,11.20
2002,04,24,15,25,11.20
2002,04,24,15,26,11.20
2002,04,24,15,27,11.20
2002,04,24,15,28,11.20
2002,04,24,15,29,11.30
2002,04,24,15,30,11.40
2002,04,24,15,31,11.40
2002,04,24,15,32,11.40
2002,04,24,15,33,11.40
2002,04,24,15,34,11.30
2002,04,24,15,35,11.30
2002,04,24,15,36,11.10
2002,04,24,15,37,10.90
2002,04,24,15,38,10.80
2002,04,24,15,39,10.80
2002,04,24,15,40,10.80
2002,04,24,15,41,10.80
2002,04,24,15,42,10.90
2002,04,24,15,43,10.90
2002,04,24,15,44,10.90
2002,04,24,15,45,10.90
2002,04,24,15,46,10.80
2002,04,24,15,47,10.70
2002,04,24,15,48,10.70
2002,04,24,15,49,10.80
2002,04,24,15,50,10.90
2002,04,24,15,51,11.10
2002,04,24,15,52,11.10
2002,04,24,15,53,11.20
2002,04,24,15,54,11.30
2002,04,24,15,55,11.40
2002,04,24,15,56,11.40
2002,04,24,15,57,11.40
2002,04,24,15,58,11.40
2002,04,24,15,59,11.50
2002,04,24,16,00,11.60
2002,04,24,16,01,11.60
2002,04,24,16,02,11.80
2002,04,24,16,03,11.80
2002,04,24,16,04,11.90
2002,04,24,16,05,11.90
2002,04,24,16,06,11.80
2002,04,24,16,07,11.80
2002,04,24,16,08,11.80
2002,04,24,16,09,11.80
2002,04,24,16,10,11.80
2002,04,24,16,11,11.90
2002,04,24,16,12,11.90
2002,04,24,16,13,11.90
2002,04,24,16,14,11.90
2002,04,24,16,15,11.90
2002,04,24,16,16,11.80
2002,04,24,16,17,11.80
2002,04,24,16,18,11.80
2002,04,24,16,19,11.60
2002,04,24,16,20,11.50
2002,04,24,16,21,11.40
2002,04,24,16,22,11.30
2002,04,24,16,23,11.20
2002,04,24,16,24,11.10
2002,04,24,16,25,11.10
2002,04,24,16,26,11.10
2002,04,24,16,27,11.10
2002,04,24,16,28,11.10
2002,04,24,16,29,11.20
2002,04,24,16,30,11.30
2002,04,24,16,31,11.30
2002,04,24,16,32,11.30
2002,04,24,16,33,11.30
2002,04,24,16,34,11.20
2002,04,24,16,35,11.20
2002,04,24,16,36,11.30
2002,04,24,16,37,11.30
2002,04,24,16,38,11.30
2002,04,24,16,39,11.30
2002,04,24,16,40,11.20
2002,04,24,16,41,11.20
2002,04,24,16,42,11.20
2002,04,24,16,43,11.20
2002,04,24,16,44,11.10
2002,04,24,16,45,11.10
2002,04,24,16,46,11.10
2002,04,24,16,47,11.00
2002,04,24,16,48,11.00
2002,04,24,16,49,10.90
2002,04,24,16,50,10.90
2002,04,24,16,51,10.90
2002,04,24,16,52,10.90
2002,04,24,16,53,10.90
2002,04,24,16,54,11.00
2002,04,24,16,55,11.10
2002,04,24,16,56,11.10
2002,04,24,16,57,11.10
2002,04,24,16,58,11.10
2002,04,24,16,59,11.10
2002,04,24,17,00,11.10
2002,04,24,17,01,11.10
2002,04,24,17,02,11.10
2002,04,24,17,03,10.90
2002,04,24,17,04,10.90
2002,04,24,17,05,10.90
2002,04,24,17,06,10.90
2002,04,24,17,07,11.00
2002,04,24,17,08,11.10
2002,04,24,17,09,11.10
2002,04,24,17,10,11.10
2002,04,24,17,11,11.10
2002,04,24,17,12,11.10
2002,04,24,17,13,11.00
2002,04,24,17,14,10.90
2002,04,24,17,15,10.90
2002,04,24,17,16,10.90
2002,04,24,17,17,10.90
2002,04,24,17,18,10.90
2002,04,24,17,19,11.00
2002,04,24,17,20,11.10
2002,04,24,17,21,11.10
2002,04,24,17,22,11.00
2002,04,24,17,23,10.90
2002,04,24,17,24,10.90
2002,04,24,17,25,10.90
2002,04,24,17,26,10.90
2002,04,24,17,27,10.90
2002,04,24,17,28,10.90
2002,04,24,17,29,10.90
2002,04,24,17,30,10.90
2002,04,24,17,31,10.90
2002,04,24,17,32,10.90
2002,04,24,17,33,10.90
2002,04,24,17,34,10.90
2002,04,24,17,35,10.90
2002,04,24,17,36,10.90
2002,04,24,17,37,10.90
2002,04,24,17,38,10.90
2002,04,24,17,39,10.90
2002,04,24,17,40,10.80
2002,04,24,17,41,10.80
2002,04,24,17,42,10.80
2002,04,24,17,43,10.80
2002,04,24,17,44,10.80
2002,04,24,17,45,10.80
2002,04,24,17,46,10.80
2002,04,24,17,47,10.80
2002,04,24,17,48,10.80
2002,04,24,17,49,10.80
2002,04,24,17,50,10.80
2002,04,24,17,51,10.80
2002,04,24,17,52,10.80